星链-5423 (STARLINK-5423 )

导读

STARLINK-5423是美国太空探索技术公司(SpaceX)于2023年2月17日发射的星链(Starlink)低轨互联网通信卫星,属于星链星座组网卫星。星链计划通过构建数千颗低轨卫星星座,为全球提供高速低延迟互联网服务,覆盖偏远地区、海上航运、航空通信等场景,同时也可支持军事通信应用。STARLINK-5423采用氪离子推进系统,运行于近地轨道,是SpaceX大规模部署星链星座的组成部分,助力实现全球网络覆盖,不过星链大规模卫星部署也引发了太空碎片与轨道安全争议。

基本信息
目录编号:
55670
目录名称:
STARLINK-5423
国际标识:
2023-021AU
轨道中心:
EARTH
卫星名称:
星链-5423
卫星全名:
星链-5423 (STARLINK-5423 )
卫星状态:
在轨 (已飞行1216 天)
发射日期:
2023-02-17 UTC
国别 :
美国 (US)
星等 :
--
轨道信息
数据来源 国际轨道数据
星历时间: 2026-06-17T08:16:46+0800
9小时前
查看轨道信息
半长轴: 6950.156km
偏心率: 0.0003445
轨道倾角: 69.999°
近地点辐角 285.746°
升交点赤经 273.960°
平近点角 74.332°
近地点: 569.624km
远地点: 574.414km
周期: 96.106分钟
每日圈数: 14.983421
详细信息
固有亮度:
5
最大亮度:
2.5
卫星平台:
Starlink v1.5
覆盖范围:
全球
运营商:
太空探索技术公司
运营商所在国:
美国
制造商(研发单位):
太空探索技术公司
制造商所在国:
美国
使用方式:
暂无
卫星简介
星链(Starlink)计划是由太空探索技术公司(SpaceX)提出的一个巨型低轨卫星互联网星座项目,计划在2019年至2024年间在太空搭建由约1.2万颗卫星组成的“星链”网络,其中1584颗将部署在地球上空550千米处的近地轨道,并从2020年开始工作。该卫星仍在工作。
2D轨道图
3D轨道图
轨道高度分析图
轨道倾角分析图
轨道综合分析图
查看轨道综合分析图